G6RZA-13 Weather Reports


time (UTC)temp
F
wind
direction
speed
knots
gust
knots
rain 1hr
in
rain 24hr
in
rain mn
in
humidity
%
barometer
mb
20260510092018 56 329 8.7 14.8 0.00 0.04 0.04 71 1016.0
20260510091018 56 316 4.3 12.2 0.00 0.04 0.04 72 1016.2
20260510090018 56 358 5.2 9.6 0.00 0.04 0.04 72 1016.2
20260510085018 56 315 6.1 12.2 0.00 0.04 0.04 73 1016.1
20260510084038 55 278 4.3 8.7 0.00 0.04 0.04 75 1016.1
20260510083058 55 320 6.1 12.2 0.00 0.04 0.04 76 1016.2
20260510082019 54 327 5.2 8.7 0.00 0.04 0.04 77 1016.3
20260510081018 54 0 3.5 6.1 0.00 0.04 0.04 77 1016.3
20260510080019 54 347 5.2 8.7 0.00 0.04 0.04 77 1016.3
20260510075042 53 15 3.5 6.1 0.00 0.04 0.04 77 1016.4
20260510074019 53 335 4.3 10.4 0.00 0.04 0.04 78 1016.4
20260510073019 53 343 3.5 9.6 0.00 0.04 0.04 79 1016.4
20260510072019 53 328 4.3 10.4 0.00 0.04 0.04 80 1016.6
20260510071019 52 330 7.0 13.0 0.00 0.04 0.04 81 1016.6
20260510070019 52 354 4.3 8.7 0.00 0.04 0.04 82 1016.5
20260510065019 52 345 4.3 9.6 0.00 0.04 0.04 83 1016.6
20260510064020 52 342 6.1 12.2 0.00 0.04 0.04 84 1016.6
20260510063020 52 331 3.5 9.6 0.00 0.04 0.04 84 1016.6
20260510062020 52 342 6.1 10.4 0.00 0.04 0.04 85 1016.6
20260510060020 52 314 4.3 10.4 0.00 0.04 0.04 86 1016.6
20260510055040 51 338 3.5 7.0 0.00 0.04 0.04 87 1016.6
20260510054023 51 289 2.6 6.1 0.01 0.04 0.04 87 1016.6
20260510053020 51 201 4.3 8.7 0.01 0.04 0.04 87 1016.5
20260510052020 51 255 4.3 7.8 0.02 0.04 0.04 87 1016.5
20260510051024 51 7 4.3 7.0 0.02 0.04 0.04 88 1016.5
20260510050024 52 294 4.3 7.8 0.02 0.04 0.04 87 1016.6
20260510045024 52 84 2.6 6.1 0.02 0.04 0.04 87 1016.7
20260510044024 52 312 2.6 7.0 0.01 0.03 0.03 87 1016.6
20260510043021 52 350 3.5 10.4 0.00 0.03 0.03 86 1016.7
20260510042045 52 6 4.3 7.8 0.00 0.02 0.02 85 1016.6
20260510041024 53 9 2.6 5.2 0.00 0.02 0.02 85 1016.7
20260510040021 53 348 5.2 13.0 0.00 0.02 0.02 84 1016.8
20260510035021 53 352 4.3 9.6 0.00 0.02 0.02 83 1016.7
20260510034021 53 335 4.3 7.0 0.00 0.02 0.02 81 1016.7
20260510033024 53 348 2.6 7.0 0.00 0.02 0.02 80 1016.6
20260510032024 53 14 3.5 5.2 0.00 0.02 0.02 79 1016.7
20260510031022 53 18 4.3 9.6 0.00 0.02 0.02 78 1016.6
20260510030025 53 24 3.5 7.0 0.00 0.02 0.02 77 1016.6
20260510025022 53 13 2.6 8.7 0.00 0.02 0.02 77 1016.8
20260510024024 53 21 1.7 5.2 0.00 0.02 0.02 76 1016.8
20260510023025 53 27 2.6 7.8 0.00 0.02 0.02 76 1016.8
20260510022045 53 160 1.7 3.5 0.01 0.02 0.02 76 1016.8
20260510021025 53 65 2.6 5.2 0.02 0.02 0.02 76 1016.8
20260510020017 53 98 2.6 7.8 0.02 0.02 0.02 76 1016.9
20260510015026 53 106 4.3 7.0 0.02 0.02 0.02 76 1016.8
20260510014022 53 24 3.5 7.8 0.02 0.02 0.02 76 1017.0
20260510013023 53 89 3.5 7.8 0.02 0.02 0.02 76 1017.1
20260510012023 54 106 3.5 8.7 0.02 0.02 0.02 75 1017.1
20260510011017 54 86 5.2 11.3 0.00 0.00 0.00 73 1017.0
20260510010025 54 96 5.2 7.8 0.00 0.00 0.00 72 1016.9
20260510005017 54 92 5.2 12.2 0.00 0.00 0.00 71 1016.9
20260510004037 54 139 3.5 9.6 0.00 0.00 0.00 71 1016.8
20260510003117 54 127 3.5 8.7 0.00 0.00 0.00 71 1016.8
20260510002017 54 129 3.5 8.7 0.00 0.00 0.00 70 1016.8
20260510001024 54 114 5.2 15.6 0.00 0.00 0.00 68 1016.8
20260510000024 55 103 4.3 9.6 0.00 0.00 0.00 67 1017.0
20260509235117 55 192 3.5 7.0 0.00 0.00 0.00 66 1017.0
20260509234018 55 101 5.2 13.9 0.00 0.00 0.00 65 1017.0
20260509233017 55 104 5.2 12.2 0.00 0.00 0.00 64 1017.0
20260509232018 55 163 2.6 8.7 0.00 0.00 0.00 64 1017.1
20260509231017 55 136 4.3 9.6 0.00 0.00 0.00 63 1017.1
20260509230018 55 124 5.2 8.7 0.00 0.00 0.00 62 1017.0
20260509225018 55 128 4.3 12.2 0.00 0.00 0.00 60 1017.1
20260509224018 55 175 4.3 9.6 0.00 0.00 0.00 59 1017.0
20260509223018 56 128 5.2 10.4 0.00 0.00 0.00 58 1017.0
20260509222038 56 190 3.5 6.1 0.00 0.00 0.00 57 1016.9
20260509221027 56 211 3.5 6.1 0.00 0.00 0.00 56 1017.0
20260509220019 56 297 3.5 7.0 0.00 0.00 0.00 55 1017.2
20260509215019 56 151 3.5 8.7 0.00 0.00 0.00 54 1017.0
20260509214028 56 68 2.6 5.2 0.00 0.00 0.00 54 1017.1
20260509213019 56 359 3.5 9.6 0.00 0.00 0.00 55 1017.1
20260509212019 56 133 4.3 11.3 0.00 0.00 0.00 56 1017.0
20260509211040 56 202 4.3 7.0 0.00 0.00 0.00 56 1017.0
20260509210048 56 156 2.6 6.1 0.00 0.00 0.00 57 1017.0
20260509205028 57 326 3.5 6.1 0.00 0.00 0.00 56 1016.9
20260509204019 57 111 4.3 9.6 0.00 0.00 0.00 56 1016.9
20260509203020 57 196 3.5 7.0 0.00 0.00 0.00 56 1016.8
20260509202028 57 61 3.5 6.1 0.00 0.00 0.00 56 1016.7
20260509201049 58 280 3.5 7.0 0.00 0.00 0.00 56 1016.6
20260509200040 58 225 3.5 8.7 0.00 0.00 0.00 55 1016.5
20260509195028 59 280 3.5 7.8 0.00 0.00 0.00 55 1016.5
20260509194029 59 73 2.6 4.3 0.00 0.00 0.00 55 1016.4
20260509193040 60 347 3.5 8.7 0.00 0.00 0.00 55 1016.5
20260509192029 60 310 1.7 4.3 0.00 0.00 0.00 56 1016.4
20260509191049 61 271 1.7 5.2 0.00 0.00 0.00 55 1016.5
20260509190020 62 56 2.6 6.1 0.00 0.00 0.00 54 1016.4
20260509185029 62 267 4.3 7.0 0.00 0.00 0.00 54 1016.4
20260509184030 63 256 3.5 7.0 0.00 0.00 0.00 54 1016.3
20260509183021 64 294 4.3 7.8 0.00 0.00 0.00 53 1016.2
20260509182050 65 277 3.5 5.2 0.00 0.00 0.00 53 1016.1
20260509181030 65 286 2.6 5.2 0.00 0.00 0.00 52 1016.2
20260509180030 66 316 4.3 7.0 0.00 0.00 0.00 52 1016.2
20260509175021 66 283 2.6 7.0 0.00 0.00 0.00 51 1016.3
20260509174030 67 277 4.3 7.8 0.00 0.00 0.00 50 1016.2
20260509173021 67 207 3.5 10.4 0.00 0.00 0.00 49 1016.1
20260509172021 68 148 3.5 7.8 0.00 0.00 0.00 46 1016.0
20260509171022 68 157 4.3 7.8 0.00 0.00 0.00 46 1015.9
20260509170021 69 80 4.3 10.4 0.00 0.00 0.00 45 1015.8
20260509165030 69 267 1.7 5.2 0.00 0.00 0.00 46 1016.0
20260509164051 70 167 3.5 6.1 0.00 0.00 0.00 44 1016.1
20260509163022 70 230 3.5 6.1 0.00 0.00 0.00 44 1016.0
20260509162022 70 129 5.2 9.6 0.00 0.00 0.00 44 1016.0
20260509161031 70 279 3.5 6.1 0.00 0.00 0.00 44 1016.0
20260509160022 70 265 4.3 9.6 0.00 0.00 0.00 44 1015.9
20260509155022 70 99 3.5 8.7 0.00 0.00 0.00 45 1016.0
20260509154022 70 114 4.3 12.2 0.00 0.00 0.00 44 1016.0
20260509153017 70 169 3.5 9.6 0.00 0.00 0.00 44 1016.2
20260509152016 70 68 5.2 12.2 0.00 0.00 0.00 45 1016.4
20260509151103 70 159 3.5 7.0 0.00 0.00 0.00 44 1016.5
20260509150023 70 113 4.3 11.3 0.00 0.00 0.00 44 1016.5
20260509145023 70 100 7.8 13.9 0.00 0.00 0.00 43 1016.7
20260509144017 70 88 4.3 12.2 0.00 0.00 0.00 43 1016.8
20260509143017 70 113 5.2 12.2 0.00 0.00 0.00 43 1016.8
20260509142017 69 94 5.2 13.9 0.00 0.00 0.00 44 1016.7
20260509141058 69 99 5.2 9.6 0.00 0.00 0.00 44 1016.6
20260509140018 69 96 5.2 13.9 0.00 0.00 0.00 44 1016.4
20260509135038 69 93 6.1 18.2 0.00 0.00 0.00 44 1016.5
20260509134018 69 104 5.2 10.4 0.00 0.00 0.00 44 1016.5
20260509133024 69 89 5.2 14.8 0.00 0.00 0.00 45 1016.5
20260509132024 69 109 5.2 12.2 0.00 0.00 0.00 44 1016.7
20260509131018 69 59 6.1 14.8 0.00 0.00 0.00 44 1016.8
20260509130018 69 105 6.1 16.5 0.00 0.00 0.00 45 1016.7
20260509125016 70 106 7.0 10.4 0.00 0.00 0.00 45 1016.6
20260509124018 69 81 3.5 8.7 0.00 0.00 0.00 47 1016.5
20260509123118 69 120 5.2 11.3 0.00 0.00 0.00 46 1016.7
20260509122059 69 177 3.5 7.8 0.00 0.00 0.00 46 1016.8
20260509121018 69 94 4.3 10.4 0.00 0.00 0.00 47 1017.0
20260509120059 70 92 6.1 21.7 0.00 0.00 0.00 45 1017.0
20260509115017 70 95 4.3 7.8 0.00 0.00 0.00 46 1017.2
20260509114037 69 286 4.3 7.8 0.00 0.00 0.00 45 1017.3
20260509113017 69 288 3.5 7.8 0.00 0.00 0.00 45 1017.4
20260509112017 68 83 5.2 11.3 0.00 0.00 0.00 46 1017.5
20260509111019 68 127 6.1 13.0 0.00 0.00 0.00 48 1017.6
20260509110019 68 173 4.3 8.7 0.00 0.00 0.00 49 1017.7
20260509105019 67 102 4.3 10.4 0.00 0.00 0.00 49 1017.7
20260509104037 67 100 3.5 7.8 0.00 0.00 0.00 51 1017.8
20260509103037 67 277 4.3 7.0 0.00 0.00 0.00 50 1017.9
20260509102018 67 90 5.2 11.3 0.00 0.00 0.00 52 1018.0
20260509101018 66 110 4.3 10.4 0.00 0.00 0.00 54 1017.9
20260509100018 66 106 5.2 11.3 0.00 0.00 0.00 54 1018.0
20260509095018 66 106 6.1 13.9 0.00 0.00 0.00 53 1018.1
20260509094018 66 110 3.5 6.1 0.00 0.00 0.00 54 1018.1
20260509093018 65 88 4.3 7.0 0.00 0.00 0.00 56 1018.1